Overview Statistics Trail Chart Weather Telemetry Raw packets
 

This is the latest recevied weather packets stored in our database for station/object K7CTM. If no packets are shown the sender has not sent any weather packets the latest 10 day(s).

<< 9 10 11 12 13 14 15 >>
Time Temp. Humidity Pressure Rain* Wind** Luminosity Snow
1788550458 30.56° C 17% 1019.8 hPa 0 mm - 731 W/m² -
1788550153 30° C 18% 1019.7 hPa 0 mm - 743 W/m² -
1788549849 30.56° C 17% 1019.7 hPa 0 mm - 747 W/m² -
1788549545 30.56° C 17% 1019.6 hPa 0 mm - 736 W/m² -
1788549241 31.11° C 17% 1019.7 hPa 0 mm - 750 W/m² -
1788548937 30.56° C 17% 1019.5 hPa 0 mm - 748 W/m² -
1788548632 30° C 17% 1019.5 hPa 0 mm - 747 W/m² -
1788548329 30° C 17% 1019.8 hPa 0 mm - 742 W/m² -
1788548024 30° C 17% 1019.7 hPa 0 mm - 744 W/m² -
1788547723 30.56° C 17% 1019.8 hPa 0 mm - 745 W/m² -
1788547418 30.56° C 17% 1020 hPa 0 mm - 735 W/m² -
1788547114 30° C 17% 1019.7 hPa 0 mm - 732 W/m² -
1788546809 30° C 17% 1019.7 hPa 0 mm - 729 W/m² -
1788546505 30° C 17% 1020 hPa 0 mm - 728 W/m² -
1788546205 30° C 18% 1019.8 hPa 0 mm - 722 W/m² -
1788545900 30° C 17% 1019.9 hPa 0 mm - 719 W/m² -
1788545600 29.44° C 18% 1019.9 hPa 0 mm - 715 W/m² -
1788545296 29.44° C 17% 1019.8 hPa 0 mm - 708 W/m² -
1788544991 30° C 17% 1020 hPa 0 mm - 705 W/m² -
1788544690 29.44° C 17% 1019.9 hPa 0 mm - 691 W/m² -
1788544389 29.44° C 18% 1020 hPa 0 mm - 690 W/m² -
1788544089 30° C 17% 1019.9 hPa 0 mm - 685 W/m² -
1788543785 29.44° C 17% 1020 hPa 0 mm - 679 W/m² -
1788543481 30° C 17% 1019.9 hPa 0 mm - 669 W/m² -
1788543176 29.44° C 18% 1020 hPa 0 mm - 659 W/m² -

* Rain latest hour (hover to see other rain measurements)
** Current wind speed in m/s (hover to see current wind gust speed)